Regional Weather Roundup
Issued by NWS

Home | Current Version | Previous Version | Text Only | Print | Product List | Glossary Off
Versions: 1 2 3 4 5 6 7 8 9 10 11 12 13 14 15 16 17 18 19 20 21 22 23 24 25 26 27 28 29 30 31 32 33 34 35 36 37 38 39 40 41 42 43 44 45 46 47 48 49 50

000
ASUS43 KDMX 291907
RWRIA

WEATHER ROUNDUP FOR IOWA
NATIONAL WEATHER SERVICE DES MOINES IA
200 PM CDT FRI AUG 29 2014

NOTE: "FAIR" INDICATES FEW OR NO CLOUDS BELOW 12,000 FEET WITH NO
SIGNIFICANT WEATHER AND/OR OBSTRUCTIONS TO VISIBILITY.

* - THESE STATIONS ARE NOT NWS STATIONS...THUS NOT UNDER NWS
QUALITY CONTROL.  THEY ALSO DO NOT REPORT WEATHER SUCH
AS PRECIPITATION OR FOG.

IAZ001>003-012>014-020>022-031>034-043>046-292000-
   NORTHWEST IOWA

CITY           SKY/WX    TMP DP  RH WIND       PRES   REMARKS
CARROLL *      MOSUNNY   73  68  83 SW8G16    29.81F
CHEROKEE *     CLOUDY    72  72 100 S5        29.81F
DENISON *      CLOUDY    73  72  94 SW5       29.79F
LE MARS *      LGT RAIN  68  68 100 NW3       29.80F
ORANGE CITY *  LGT RAIN  72  66  83 W7        29.82S
SHELDON *      MOSUNNY   72  70  94 W7        29.79F
SIOUX CITY       N/A     74  68  81 N5        29.80S
SPENCER        CLOUDY    73  68  84 SW12      29.81S
STORM LAKE *   LGT RAIN  72  72 100 SW10      29.81F
$$

IAZ055>058-069>071-079>083-090>094-292000-
   SOUTHWEST IOWA

CITY           SKY/WX    TMP DP  RH WIND       PRES   REMARKS
ATLANTIC *     SUNNY     75  68  78 S7        29.81F
AUDUBON *      SUNNY     77  72  83 SW8       29.83F
CLARINDA *     PTSUNNY   73  68  83 SW7       29.84S
COUNCIL BLFS * MOSUNNY   75  72  88 SW6       29.80F
CRESTON *      SUNNY     77  68  73 S13       29.83F
HARLAN  *      MOSUNNY   73  70  88 SW10      29.84F
RED OAK *      CLOUDY    73  68  83 SW8       29.83S
SHENANDOAH *   PTSUNNY   73  68  83 S6        29.83S
$$

IAZ047>049-059>061-072>074-084-292000-
   CENTRAL IOWA

CITY           SKY/WX    TMP DP  RH WIND       PRES   REMARKS
AMES           CLOUDY    84  71  65 SW14G20   29.80F HX  89
ANKENY *       SUNNY     82  70  65 SW8G16    29.80F HX  86
CHARITON *     MOSUNNY   82  70  65 S9        29.82F HX  86
DES MOINES     CLOUDY    82  69  64 SW13      29.80F HX  85
GRINNELL*      MOSUNNY   84  68  58 S10G20    29.83F HX  87
KNOXVILLE *    SUNNY     84  72  65 S12       29.80F HX  89
MARSHALLTOWN   PTSUNNY   84  70  62 S16       29.80F HX  88
PELLA *        MOSUNNY   86  72  62 S8        29.82F HX  92
PERRY *          N/A     79  68  69 SW8       29.81F HX  81
$$

IAZ004>006-015-016-023>025-035-036-292000-
   NORTH CENTRAL IOWA

CITY           SKY/WX    TMP DP  RH WIND       PRES   REMARKS
ALGONA *       PTSUNNY   77  70  78 SW12      29.81S
CLARION *      PTSUNNY   79  72  78 S9G16     29.81F HX  82
ESTHERVILLE    CLOUDY    74  70  87 SW8       29.80F
FORT DODGE *   CLOUDY    77  70  78 SW8       29.81F
MASON CITY     CLOUDY    82  71  69 S9        29.82F HX  86
FOREST CITY *  PTSUNNY   79  72  78 SW8       29.81S HX  82
IOWA FALLS *   PTSUNNY   82  72  69 SW12      29.82S HX  87
$$

IAZ007>011-017>019-026>030-037>042-050>054-066-292000-
   NORTHEAST IOWA

CITY           SKY/WX    TMP DP  RH WIND       PRES   REMARKS
CEDAR RAPIDS   MOSUNNY   86  72  62 S12       29.83F HX  92
CHARLES CITY * SUNNY     84  72  65 S12G18    29.81F HX  89
CLINTON *      SUNNY     84  73  70 S10G17    29.90F HX  91
DECORAH *      MOSUNNY   84  72  65 S9G21     29.82F HX  89
DUBUQUE        SUNNY     83  72  69 S14G22    29.87F HX  88
MONTICELLO *   SUNNY     86  73  66 S13       29.85F HX  93
OELWEIN *      MOSUNNY   84  70  61 S15G23    29.84F HX  88
WATERLOO       MOSUNNY   87  69  54 S17G28    29.80F HX  91
$$

IAZ064-065-067-068-078-292000-
   EAST CENTRAL IOWA

CITY           SKY/WX    TMP DP  RH WIND       PRES   REMARKS
DAVENPORT      SUNNY     85  72  65 S12       29.88F HX  91
IOWA CITY      SUNNY     86  72  62 S12       29.85F HX  92
MT. PLEASANT * SUNNY     88  68  51 S7        29.85F HX  91
MUSCATINE *    SUNNY     88  70  55 S13       29.85F HX  92
QUAD CITIES    SUNNY     85  72  65 S10       29.86F HX  91
$$

IAZ062-063-075>077-085>089-095>099-292000-
   SOUTHEAST IOWA

CITY           SKY/WX    TMP DP  RH WIND       PRES   REMARKS
BURLINGTON     SUNNY     86  72  62 S10       29.86F HX  92
FAIRFIELD *    SUNNY     86  70  58 S9G21     29.84F HX  90
FORT MADISON * SUNNY     88  72  58 S9        29.86F HX  94
KEOKUK *       SUNNY     86  70  58 S10       29.84F HX  90
OSKALOOSA *      N/A     86  72  62 S12       29.82F HX  92
CENTERVILLE *  SUNNY     84  73  70 S6        29.84F HX  91
OTTUMWA        SUNNY     86  70  58 S9        29.80F HX  90
WASHINGTON *   SUNNY     86  73  66 S13       29.84F HX  93
$$

ABBREVIATIONS USED IN REMARKS
   TC - TEMPERATURES IN CELSIUS
  WCI - WIND CHILL INDEX
   HX - HEAT INDEX
  VSB - VISIBILITY
$$



USA.gov is the U.S. government's official web portal to all federal, state and local government web resources and services.